Regional Weather Roundup
Issued by NWS

Home | Current Version | Previous Version | Graphics & Text | Print | Product List | Glossary On
Versions: 1 2 3 4 5 6 7 8 9 10 11 12 13 14 15 16 17 18 19 20 21 22 23 24 25 26 27 28 29 30 31 32 33 34 35 36 37 38 39 40 41 42 43 44 45 46 47 48 49 50
000
ASUS43 KMKX 291011
RWRWI

WISCONSIN REGIONAL WEATHER ROUNDUP
NATIONAL WEATHER SERVICE MILWAUKEE/SULLIVAN WI
500 AM CDT TUE JUL 29 2014

NOTE: "FAIR" INDICATES FEW OR NO CLOUDS BELOW 12,000 FEET WITH NO
SIGNIFICANT WEATHER AND/OR OBSTRUCTIONS TO VISIBILITY.

WIZ001-002-006>008-014>016-023>028-291100-
NORTHWEST WISCONSIN

CITY           SKY/WX    TMP DP  RH WIND       PRES   REMARKS
SUPERIOR ARPT  CLOUDY    58  55  92 W6        30.08S
ASHLAND        CLOUDY    56  54  93 SW6       30.06S
HAYWARD        PTCLDY    50  49  96 CALM      30.10R FOG
SIREN          CLEAR     51  50  95 CALM      30.11R
RICE LAKE      NOT AVBL
LADYSMITH      CLEAR     56  54  92 NW6       30.09R
EAU CLAIRE     CLEAR     55  53  93 SW3       30.08R
MENOMONIE      SUNNY     58  55  89 W5        30.09S
NEW RICHMOND   CLEAR     55  54  95 W5        30.12R
OSCEOLA        CLEAR     53  53 100 CALM      30.14S
$$

WIZ003>005-009-010-017-018-291100-
NORTH CENTRAL WISCONSIN

CITY           SKY/WX    TMP DP  RH WIND       PRES   REMARKS
WOODRUFF       PTCLDY    53  50  90 CALM      30.05S
RHINELANDER    PTCLDY    49  48  97 W3        30.05S FOG
EAGLE RIVER    FOG       47  47 100 CALM      30.03S VSB 1/4
LAND O LAKES   PTCLDY    48  47  98 CALM      30.04S FOG
PHILLIPS       CLEAR     51  51 100 CALM      30.06R FOG
TOMAHAWK       MOCLDY    50  49  97 CALM      30.06S FOG
MEDFORD        MOCLDY    51  51  99 CALM      30.06S
MERRILL        CLEAR     49  49 100 CALM      30.05S FOG
$$

WIZ029-030-035-036-043>047-291100-
CENTRAL WISCONSIN

CITY           SKY/WX    TMP DP  RH WIND       PRES   REMARKS
WAUSAU         CLEAR     56  53  90 NW7       30.04R
MOSINEE        PTCLDY    55  54  94 NW9       30.05S
MARSHFIELD     CLEAR     54  52  93 NW8       30.05S
STEVENS POINT  PTCLDY    55  52  90 CALM      30.05R
WAUPACA        PTCLDY    60  55  81 W3        30.03S
WAUTOMA        PTCLDY    57  53  86 W6        30.04R
WISC RAPIDS    PTCLDY    54  53  97 CALM      30.06R
CAMP DOUGLAS   CLEAR     52  52 100 W7        30.06R
$$

WIZ011>013-019>022-031-037>040-048>050-291100-
NORTHEAST WISCONSIN

CITY           SKY/WX    TMP DP  RH WIND       PRES   REMARKS
ANTIGO         PTCLDY    52  51  98 NW6       30.05R
STURGEON BAY   PTCLDY    57  52  82 CALM      29.98S
GREEN BAY      PTCLDY    57  54  89 W7        29.99F
MANITOWOC      CLEAR     59  55  87 NW5       29.99S
APPLETON       CLEAR     55  52  88 W10       30.01S
CLINTONVILLE   MOCLDY    57  54  88 NW6       30.01S
OSHKOSH        CLEAR     58  54  86 W7        30.01R
$$

WIZ032>034-041-042-053>061-291100-
SOUTHWEST WISCONSIN

CITY           SKY/WX    TMP DP  RH WIND       PRES   REMARKS
LA CROSSE      CLEAR     56  53  90 CALM      30.08R
SPARTA         CLEAR     48  47  97 CALM      30.08S
VIROQUA        FAIR      54  54 100 W5        30.09R
BOSCOBEL       CLEAR     54  51  90 SW3       30.09R
PRAIRIE DU CHI CLEAR     54  51  92 CALM      30.09S
PLATTEVILLE    FAIR      52  50  95 W5        30.09S
$$

WIZ056-057-062-063-064-067-068-291100-
SOUTH CENTRAL WISCONSIN

CITY           SKY/WX    TMP DP  RH WIND       PRES   REMARKS
BARABOO/DELLS  CLEAR     57  50  77 CALM      30.06R
LONE ROCK      CLEAR     56  52  86 W6        30.07R
WATERTOWN      PTCLDY    56  54  92 CALM      30.03S
MADISON        PTCLDY    59  52  77 CALM      30.05R
MIDDLETON      FAIR      58  52  83 W7        30.05S
MONROE         CLEAR     59  52  77 W12       30.06S
JANESVILLE     CLEAR     55  52  88 W3        30.04S
$$

WIZ051-052-058>065-066-070>072-291100-
SOUTHEAST WISCONSIN

CITY           SKY/WX    TMP DP  RH WIND       PRES   REMARKS
MILWAUKEE      CLOUDY    63  53  70 W8        30.01S
WAUKESHA       MOCLDY    55  52  88 W9        30.03S
MILWAUKEE/TIMM MOCLDY    59  52  77 W5        30.03R
RACINE         CLOUDY    61  54  77 W8        30.03S
BURLINGTON     PTCLDY    52  50  93 CALM      30.03S
KENOSHA        MOCLDY    57  54  89 W6        30.02S
FOND DU LAC    CLEAR     58  53  84 W3        30.02R
SHEBOYGAN      CLEAR     57  54  89 W5        30.00S
WEST BEND      CLEAR     59  52  77 W5        30.01S
JUNEAU         MOCLDY    57  53  84 CALM      30.04R
$$

LSZ147-162-291100-
LAKE SUPERIOR

STATION/POSITION TIME  TEMP    WIND        PRES    WAVE
                       AIR SEA DIR/SP/G            HT/PER
                 (UTC) (F)     (DEG/KT/KT) (MB)    (FT/S)
W MID LAKE BUOY  0950   51 43  270/  8/ 10 1016.3R   1/ 3
PORT WING        0900   58     210/  3/  6 1017.9F
SAXON HARBOR     0900          180/  5/  7 1017.3F
$$

LMZ867-665-643>646-291100-
LAKE MICHIGAN

STATION/POSITION TIME  TEMP    WIND        PRES    WAVE
                       AIR SEA DIR/SP/G            HT/PER
                 (UTC) (F)     (DEG/KT/KT) (MB)    (FT/S)
N MID LAKE BUOY  0950   56 52  290/  8/  8 1013.6S   1/ 3
NORTHPORT PIER   0900   62     310/  8/ 11 1014.2F
ALGOMA LAKESHORE 0951          330/  5/  7   N/A
KEWAUNEE LAKESHO 0900   58     300/  5/  6 1015.8S
SHEBOYGAN LAKESH 1000   64     290/ 10/ 12 1015.7S
PORT WASHINGTON  0900   62     290/  4/  7 1016.3
ATWATER BUOY     1000   63     270/ 12     1017.1R
MILWAUKEE LAKESH 0900   64     290/  9/ 10   N/A
S MID LAKE BUOY  0950   61 60  230/ 10/ 12 1016.0F   1/ 6
KENOSHA   LAKESH 0900   61     260/  9/ 11 1016.3F
$$

TC  - TEMPERATURE IN CELSIUS
VSB - VISIBILITY IN STATUTE MILES
WCI - WIND CHILL INDEX
HX  - HEAT INDEX



USA.gov is the U.S. government's official web portal to all federal, state and local government web resources and services.